Satellite: AO-27
Catalog number: 22825
Epoch time:      06173.55779913
Element set:     430
Inclination:      098.2815 deg
RA of node:       155.1232 deg
Eccentricity:    0.0007316
Arg of perigee:   246.7735 deg
Mean anomaly:     113.2659 deg
Mean motion:   14.29175937 rev/day
Decay rate:       -1.7e-07 rev/day^2
Epoch rev:           66412
Checksum:              315

Satellite: IO-26
Catalog number: 22826
Epoch time:      06172.96669855
Element set:    0136
Inclination:      098.2789 deg
RA of node:       155.7655 deg
Eccentricity:    0.0007920
Arg of perigee:   247.2345 deg
Mean anomaly:     112.7999 deg
Mean motion:   14.29419668 rev/day
Decay rate:        1.2e-07 rev/day^2
Epoch rev:           66411
Checksum:              350

Satellite: PO-28
Catalog number: 22829
Epoch time:      06172.53843539
Element set:    0405
Inclination:      098.2663 deg
RA of node:       156.5608 deg
Eccentricity:    0.0008889
Arg of perigee:   218.3759 deg
Mean anomaly:     141.6798 deg
Mean motion:   14.30114394 rev/day
Decay rate:       1.96e-06 rev/day^2
Epoch rev:           66426
Checksum:              347

Satellite: TO-31
Catalog number: 25396
Epoch time:      06172.73117042
Element set:    0558
Inclination:      098.4783 deg
RA of node:       232.8902 deg
Eccentricity:    0.0002655
Arg of perigee:   163.9182 deg
Mean anomaly:     196.2083 deg
Mean motion:   14.23706343 rev/day
Decay rate:      -1.40e-06 rev/day^2
Epoch rev:           41299
Checksum:              304

Satellite: GO-32
Catalog number: 25397
Epoch time:      06172.68923463
Element set:    0043
Inclination:      098.4667 deg
RA of node:       229.5889 deg
Eccentricity:    0.0001204
Arg of perigee:   156.6614 deg
Mean anomaly:     203.4608 deg
Mean motion:   14.23106825 rev/day
Decay rate:        7.7e-07 rev/day^2
Epoch rev:           41288
Checksum:              317

Satellite: UO-36
Catalog number: 25693
Epoch time:      06173.51570295
Element set:      71
Inclination:      064.5584 deg
RA of node:       226.3444 deg
Eccentricity:    0.0018846
Arg of perigee:   330.5316 deg
Mean anomaly:     029.4692 deg
Mean motion:   14.78601687 rev/day
Decay rate:      -1.32e-06 rev/day^2
Epoch rev:           38657
Checksum:              324

Satellite: MO-46
Catalog number: 26548
Epoch time:      06172.62798107
Element set:     523
Inclination:      064.5563 deg
RA of node:       218.0017 deg
Eccentricity:    0.0048612
Arg of perigee:   246.4311 deg
Mean anomaly:     113.1680 deg
Mean motion:   14.82984095 rev/day
Decay rate:        8.6e-07 rev/day^2
Epoch rev:           31006
Checksum:              296

Satellite: NO-44
Catalog number: 26931
Epoch time:      06172.75780077
Element set:    0335
Inclination:      067.0535 deg
RA of node:       355.9076 deg
Eccentricity:    0.0006833
Arg of perigee:   257.4995 deg
Mean anomaly:     102.5332 deg
Mean motion:   14.29441348 rev/day
Decay rate:      -3.28e-06 rev/day^2
Epoch rev:           24658
Checksum:              324

Satellite: SO-50
Catalog number: 27607
Epoch time:      06172.78782215
Element set:    0052
Inclination:      064.5579 deg
RA of node:       099.1213 deg
Eccentricity:    0.0042746
Arg of perigee:   145.9513 deg
Mean anomaly:     214.4369 deg
Mean motion:   14.71148578 rev/day
Decay rate:       -4.0e-08 rev/day^2
Epoch rev:           18810
Checksum:              312

Satellite: CO-57
Catalog number: 27848
Epoch time:      06173.56220762
Element set:     753
Inclination:      098.7180 deg
RA of node:       181.0959 deg
Eccentricity:    0.0010654
Arg of perigee:   054.5961 deg
Mean anomaly:     305.6209 deg
Mean motion:   14.20269626 rev/day
Decay rate:        2.1e-07 rev/day^2
Epoch rev:           15440
Checksum:              306

Satellite: AO-51
Catalog number: 28375
Epoch time:      06173.28625997
Element set:     560
Inclination:      098.1636 deg
RA of node:       225.0905 deg
Eccentricity:    0.0083271
Arg of perigee:   191.8022 deg
Mean anomaly:     168.1213 deg
Mean motion:   14.40523540 rev/day
Decay rate:        3.6e-07 rev/day^2
Epoch rev:           10389
Checksum:              298

Satellite: XO-53
Catalog number: 28894
Epoch time:      06172.76866667
Element set:     579
Inclination:      098.1656 deg
RA of node:       071.0142 deg
Eccentricity:    0.0017714
Arg of perigee:   155.5311 deg
Mean anomaly:     204.6729 deg
Mean motion:   14.59480348 rev/day
Decay rate:        6.6e-07 rev/day^2
Epoch rev:            3464
Checksum:              335

Satellite: CO-56
Catalog number: 28941
Epoch time:      06173.74073399
Element set:     124
Inclination:      098.1766 deg
RA of node:       193.1046 deg
Eccentricity:    0.0281899
Arg of perigee:   090.9363 deg
Mean anomaly:     272.4183 deg
Mean motion:   15.24884665 rev/day
Decay rate:     1.4011e-04 rev/day^2
Epoch rev:            1839
Checksum:              341

/EX
SB KEPS @ AMSAT  $ORB06173.W
Orbital Elements  06173.WEATHER

HR AMSAT ORBITAL ELEMENTS FOR WEATHER SATELLITES
FROM WA5QGD FORT WORTH,TX June 22, 2006
Send SUBSCRIBE KEPS/UNSUBSCRIBE KEPS to majordomo@amsat.org only
BID: ORB06173.W
TO ALL RADIO AMATEURS BT

Satellite: NOAA-10
Catalog number: 16969
Epoch time:      06173.47224306
Element set:     249
Inclination:      098.7590 deg
RA of node:       185.1177 deg
Eccentricity:    0.0013084
Arg of perigee:   132.3028 deg
Mean anomaly:     227.9275 deg
Mean motion:   14.27297725 rev/day
Decay rate:        9.4e-07 rev/day^2
Epoch rev:            2791
Checksum:              318

